Location: Brno
(49.2000°N, 16.6330°E)
Time: 17:31:21
(UTC+02:00)

Daily predictions for brighter satellites

Satellite Brightness Start Highest point End
(mag) Time Altitude Azimuth Time Altitude Azimuth Time Altitude Azimuth
Helios 1B rocket 3.4 21:42:04 10° N 21:46:08 52° WNW 21:50:09 10° SSW
Cosmos 371 Rocket 3.4 21:42:23 10° NNW 21:47:13 75° ENE 21:52:02 10° SSE
Cosmos 1459 Rocket 4.3 21:42:25 10° NNW 21:48:43 71° W 21:54:52 10° S
Cosmos 2263 Rocket 3.3 21:44:46 10° SSE 21:49:04 23° ESE 21:53:23 10° NE
Cosmos 1766 Rocket 3.5 21:46:21 10° S 21:50:41 77° E 21:55:03 10° NNE
Cosmos 1328 Rocket 3.7 21:46:29 10° N 21:50:49 61° ENE 21:55:05 10° SSE
ATLAS 5 CENTAUR R/B 2.2 21:46:25 10° SW 21:51:10 75° NW 21:56:27 10° NE
Tiangong 1 2.3 21:51:26 10° WSW 21:53:39 21° S 21:55:51 10° SE
Cosmos 1151 Rocket 3.8 21:50:45 10° N 21:54:54 40° ENE 21:59:02 10° SE
Cosmos 2084 3.5 21:52:46 10° SW 21:56:42 72° NW 22:00:31 10° NE
Cosmos 1515 Rocket 3.8 21:53:22 10° N 21:57:39 53° ENE 22:01:53 10° SSE
Meteor 1-21 Rocket 4.4 21:54:00 10° SSW 21:59:39 77° WNW 22:05:15 10° N
Lacrosse 5 2.7 21:56:44 10° WNW 22:01:30 42° SW 22:06:14 10° SSE
Cosmos 1814 Rocket 4.1 21:56:15 10° NNW 22:01:38 83° WSW 22:06:56 10° SSE
USA 245 3.5 21:59:09 10° S 22:02:46 79° WSW 22:07:24 10° NNW
SPOT 5 3.1 21:59:33 10° SSE 22:04:28 81° WSW 22:09:41 10° NNW
H-2A R/B 3.2 22:02:23 10° SE 22:06:09 30° ENE 22:09:51 10° N
Cosmos 1743 Rocket 3.8 22:02:28 10° S 22:06:40 53° E 22:10:54 10° NNE
YAOGAN 11 4.4 22:02:38 10° S 22:07:08 73° WSW 22:11:44 10° NNW
USA 234 3.7 22:01:56 10° ENE 22:07:59 39° SE 22:14:00 10° SSW
Cosmos 1626 3.5 22:05:32 11° SE 22:08:22 23° E 22:11:22 10° NE
Cosmos 1726 2.5 22:04:55 10° NNW 22:08:35 62° W 22:12:11 10° S
Meteor 2-2 Rocket 4.4 22:03:50 10° NNW 22:09:38 80° W 22:15:31 10° S
Cosmos 2228 Rocket 3.2 22:05:07 10° N 22:09:45 87° E 22:14:19 10° S
ERBS 3.2 22:06:36 10° WNW 22:09:46 38° SW 22:12:39 12° SSE
Cosmos 841 Rocket 3.6 22:04:33 10° NNW 22:09:51 76° ENE 22:14:50 11° SSE
Cosmos 1763 Rocket 3.5 22:05:40 10° NNW 22:10:49 86° WSW 22:15:49 10° SSE
Cosmos 2123 Rocket 4.0 22:04:58 10° S 22:11:07 74° E 22:17:20 10° NNE
Cosmos 1486 Rocket 4.3 22:09:03 10° S 22:14:07 49° ESE 22:19:14 10° NNE
Cosmos 1603 4.4 22:10:00 10° NW 22:15:26 48° WSW 22:20:47 10° S
Cosmos 1300 3.0 22:12:53 10° NNW 22:16:43 66° W 22:20:30 10° S
Landsat 7 3.9 22:16:19 11° SSE 22:20:53 76° ENE 22:25:39 10° N
Cosmos 2285 Rocket 4.3 22:18:18 10° NNW 22:24:37 63° ENE 22:30:16 13° SE
ARGOS 3.9 22:20:32 10° S 22:25:48 52° W 22:31:06 10° NNW
Cosmos 1356 3.8 22:23:14 12° S 22:26:16 46° E 22:29:39 10° NNE
SL-08 RB Rocket 4.3 22:21:55 10° S 22:26:24 55° W 22:30:59 10° NNW
Cosmos 2058 3.3 22:23:04 12° SSE 22:26:49 47° E 22:30:53 10° NNE
SPOT 1/Viking Rocket 3.8 22:21:48 10° S 22:26:56 70° WSW 22:32:06 10° NNW
RESURS DK-1 4.0 22:24:21 10° NW 22:27:55 27° WSW 22:31:27 10° SSW
SL-14 R/B 3.4 22:24:21 10° SSW 22:28:18 80° W 22:32:15 10° N
Cosmos 220 Rocket 4.0 22:24:49 10° SSW 22:29:14 83° ESE 22:33:37 10° NNE
Cosmos 1725 Rocket 4.3 22:23:15 10° NNW 22:29:29 69° W 22:35:38 10° S
Cosmos 1943 3.4 22:24:14 10° NNW 22:29:52 70° WSW 22:34:56 13° SSE
Terra 1.9 22:31:44 14° SSE 22:35:49 75° ENE 22:40:35 10° N
Abrixas rocket 3.8 22:33:29 10° W 22:36:01 21° SSW 22:37:30 16° S
CZ-3A R/B -1.1 22:37:36 10° NW 22:38:40 53° NNE 22:38:44 51° NE
Cosmos 1328 4.3 22:35:13 10° SSW 22:39:14 63° WNW 22:43:15 10° N
Cosmos 304 Rocket 3.8 22:41:55 10° NNW 22:46:45 87° ENE 22:50:22 18° SSE
Sich 1 4.4 22:46:33 16° SE 22:48:46 24° E 22:52:13 10° NE
Cosmos 1455 2.3 22:46:01 10° N 22:49:54 68° E 22:52:28 20° SSE
CZ-2C R/B 4.5 22:49:24 10° NE 22:52:21 15° E 22:54:48 11° ESE
Cosmos 1464 Rocket 4.2 22:48:58 10° N 22:55:03 58° ENE 22:59:44 18° SSE
deb Chang Zheng 4 3.9 22:52:50 10° NNE 22:57:06 50° E 23:00:05 19° S
Cosmos 2151 3.2 22:53:13 10° SSW 22:57:30 74° W 23:01:51 10° N
Cosmos 1707 Rocket 4.0 22:55:14 10° N 22:59:38 53° ENE 23:02:31 20° SSE
Cosmos 1503 Rocket 4.0 22:55:27 11° S 23:00:18 63° ESE 23:05:26 10° NNE
CZ-4C R/B 3.3 22:59:26 18° SSE 23:01:43 24° ESE 23:06:19 10° ENE
ALOS 2 4.4 23:02:12 11° ESE 23:05:19 21° ENE 23:08:37 10° NNE
Cosmos 1869 3.6 23:03:17 10° N 23:07:10 54° ENE 23:09:23 23° SSE
CZ-4B R/B 3.9 23:02:11 10° NNE 23:07:20 50° E 23:10:49 20° SSE
Cosmos 540 Rocket 3.5 23:02:54 10° NNW 23:08:04 74° WSW 23:11:38 20° SSE
Spot 4 3.9 23:05:32 20° SSE 23:08:56 81° ENE 23:13:50 10° NNW
DELTA 2 DEB (DPAF) 4.3 23:06:17 21° SSE 23:09:12 67° ENE 23:13:39 10° N
H-2A R/B 3.5 23:06:31 10° SSW 23:11:18 33° W 23:16:12 10° NNW
Cosmos 968 Rocket 4.4 23:12:59 20° SSE 23:15:34 31° E 23:20:11 10° NE
CZ-3B DEB 4.5 23:04:09 10° WNW 23:15:38 69° N 23:28:35 10° E
Cosmos 1666 Rocket 4.0 23:16:54 23° SSE 23:19:22 49° E 23:23:41 10° NNE
Cosmos 2278 Rocket 4.2 23:18:23 10° ESE 23:20:06 12° E 23:21:56 10° ENE
CZ-4C R/B 3.6 23:20:21 24° SSE 23:22:55 82° ENE 23:27:23 10° NNW
Cosmos 1400 Rocket 4.3 23:21:31 20° ESE 23:23:03 24° E 23:26:26 10° NE
PSLV R/B 4.0 23:28:33 25° SSW 23:29:42 38° W 23:32:24 10° NNW
Cosmos 1805 Rocket 3.5 23:27:29 21° S 23:30:20 88° WNW 23:34:43 10° N
Cosmos 1703 4.3 23:27:00 12° SSW 23:30:33 43° WNW 23:34:24 10° N
Cosmos 2263 Rocket 2.6 23:26:59 10° SW 23:32:30 64° WNW 23:38:06 10° NNE
Tsikada Rocket 4.4 23:29:35 21° SSE 23:33:35 50° E 23:39:39 10° NNE
Cosmos 1633 Rocket 3.2 23:32:40 27° SSE 23:34:53 58° E 23:39:12 10° NNE
ATLAS 5 CENTAUR R/B 4.5 23:32:39 10° WNW 23:36:46 24° NNW 23:41:13 10° NNE
Cosmos 2084 Rocket 3.1 23:34:49 10° NW 23:38:38 73° SW 23:40:19 31° SSE
SME Rocket 3.3 23:37:17 26° S 23:39:27 67° WSW 23:44:30 10° NNW
MINOTAUR R/B 4.3 23:39:58 49° SSE 23:40:30 63° ESE 23:43:18 10° NNE
COSMOS 2406 3.2 23:36:05 10° NNW 23:41:49 87° ENE 23:45:22 24° SSE
H-2A R/B 3.4 23:39:21 16° SSW 23:42:08 31° W 23:45:55 10° NNW
Cosmos 1626 3.9 23:40:20 10° SW 23:43:36 29° WNW 23:46:54 10° N
Cosmos 1538 Rocket 4.1 23:42:19 10° NNW 23:47:43 74° ENE 23:50:58 25° SSE
Cosmos 2082 Rocket 4.0 23:43:40 10° NNW 23:48:16 25° NE 23:52:52 10° E
CZ-2C R/B 3.5 23:44:37 23° SSE 23:48:17 66° ENE 23:53:52 10° N
SL-27 R/B 4.1 23:45:58 10° N 23:48:46 24° ENE 23:50:27 17° E
USA 234 3.4 23:44:49 10° NE 23:51:23 81° NNW 23:57:56 10° WSW
